Location: Saint-Palais-sur-Mer
(45.6429°N, 1.0859°W)
Time: 00:56:09
(UTC+01:00)

Tiros 1 despin weight - Pass Details

Date: 16 February 2026
Orbit: 556 x 593 km, 48.2° (Epoch: 13 March)

Event Time Altitude Azimuth Distance (km) Brightness Sun altitude
Rises 23:03:03 0° 284° (WNW) 2,738 - -45.9°
Reaches altitude 10° 23:05:46 10° 267° (W) 1,844 - -46.2°
Maximum altitude 23:08:49 20° 220° (SW) 1,338 - -46.6°
Drops below altitude 10° 23:11:52 10° 174° (S) 1,850 - -47.0°
Sets 23:14:36 0° 157° (SSE) 2,749 - -47.4°
